www.pogodaiklimat.ru

Погода и климат >> Архив погоды >> Россия >> Нижегородская область >> Лысково


ПОГОДА в Лысково

  • Прогноз погоды в Лысково
  • Монитор погоды в Лысково
  • Климат города

АРХИВ ПОГОДЫ в Лысково

Время (UTC), дата Ветер
(напр.,м/с)
 
Видим.   Явления Облачность Т
(С)
Тd
(С)
f
(%)
Тe
(С)
Тes
(С)
Комфортность P
(гПа)
Po
(гПа)
Тmin
(С)
Tmax
(С)
R
(мм)
R24
(мм)
S
(см)
09 14.06 З 3-6
{7}
20 км 9/9 600 м
[Sc]
+12.2 +3.2 54 +11 +12 1014.8 1000.0
12 14.06 СЗ 2-5
{8}
20 км 9/8 600 м
[Sc Cc]
+14.9 +3.8 47 +15 +17 1015.1 1000.4
15 14.06 СЗ 2-4
{6}
20 км 8/8 600 м
[Sc Ci fib]
+14.9 +4.3 49 +15 +15 1015.5 1000.8 +15.7
18 14.06 штиль 0
{5}
20 км 6/3 600 м
[Sc Cs]
+10.6 +5.1 69 +10 +10 1016.5 1001.6
21 14.06 С 1-2
{2}
20 км 8/0
[Cs]
+7.6 +5.1 84 +7 +7 1018.2 1003.0
00 15.06 штиль 0
{2}
20 км 5/0
[Cs]
+4.4 +3.2 92 +3 +3 1019.6 1004.3
03 15.06 С 1-2
{2}
20 км 6/0
[Ac trans Cc]
+8.5 +4.0 73 +8 +10 1020.3 1005.2 +3.0
06 15.06 С 2-6
{6}
20 км 1/1 600 м
[Sc]
+12.0 +0.2 44 +11 +21 опасность
простуды
1020.5 1005.5
09 15.06 СЗ 2-6
{10}
20 км 1/1 600 м
[Sc]
+15.0 -1.2 33 +15 +29 опасность
простуды
1019.8 1005.0
12 15.06 С 3-6
{9}
20 км 8/4 600 м
[Sc Ci fib]
+17.2 -0.7 30 +17 +22 1019.0 1004.3
15 15.06 СЗ 1-3
{7}
20 км 8/8 600 м
[Sc]
+16.0 +1.9 39 +17 +18 1019.1 1004.3 +17.8
18 15.06 Ю 1-1
{4}
20 км 1/0
[Ac lent]
+9.6 +6.4 80 +9 +9 1019.3 1004.2
21 15.06 Ю 1-1
{2}
20 км 3/0
[Ac lent]
+5.6 +4.0 89 +4 +4 1020.2 1004.9
00 16.06 Ю 1-1
{2}
20 км 5/0
[Ac lent]
+6.1 +4.7 91 +5 +5 1020.4 1005.2
03 16.06 ЮЗ 1-2
{2}
20 км 9/0
[Cs]
+10.1 +6.7 79 +10 +12 1021.0 1006.0 +5.0
06 16.06 С 2-4
{4}
20 км ясно +16.6 +6.2 50 +17 +28 1020.5 1005.8
09 16.06 С 3-6
{6}
20 км 3/0
[Cc]
+19.3 +3.0 34 +20 +32 1019.7 1005.1
12 16.06 С 3-5
{7}
20 км ясно +20.6 +2.7 31 +21 +30 комфорт 1019.0 1004.5
15 16.06 штиль 0-4
{6}
50 км ?/? +21.0 +2.9 30 +21 +21 комфорт 1018.6 1004.1 +21.2
18 16.06 ЮВ 1-1
{4}
20 км ясно +14.2 +9.5 73 +15 +15 1019.1 1004.3
21 16.06 Ю 1-1
{2}
20 км ясно +7.1 +5.3 88 +6 +6 1019.8 1004.6
00 17.06 Ю 1-1
{2}
20 км ясно +6.2 +4.8 91 +5 +5 1020.2 1005.0
03 17.06 ЮЗ 1-2
{2}
20 км 1/0
[Ci fib]
+13.0 +7.7 70 +13 +16 1019.9 1005.0 +5.5
06 17.06 СЗ 2-5
{5}
20 км ясно +19.9 +8.6 48 +22 +32 комфорт 1018.6 1004.1
09 17.06 С 2-6
{8}
20 км 8/8 600 м
[Sc diur, vesp]
+23.9 +6.7 33 +24 +27 комфорт 1017.2 1002.8
12 17.06 СЗ 3-7
{8}
20 км 6/6 600 м
[Sc diur, vesp]
+25.7 +8.0 32 +26 +29 жарко 1015.7 1001.5
15 17.06 СЗ 2-5
{7}
20 км 6/6 600 м
[Sc]
+25.7 +10.3 38 +27 +28 жарко 1014.8 1000.7 +26.2
18 17.06 СЗ 1-2
{6}
20 км 3/3 600 м
[Sc]
+22.0 +11.2 50 +24 +24 комфорт 1015.5 1001.2
21 17.06 ЮЗ 1-1
{2}
20 км 3/3 600 м
[Sc]
+13.9 +11.7 87 +14 +14 1015.8 1001.1
00 18.06 ЮЗ 1-1
{2}
20 км 8/8 600 м
[Sc]
+12.5 +11.0 91 +12 +12 1016.1 1001.3
03 18.06 З 1-2
{2}
20 км ясно +16.9 +12.7 76 +18 +21 1015.8 1001.2 +12.0
06 18.06 СЗ 1-3
{3}
10 км 8/8 600 м
[Sc]
+21.5 +12.7 57 +24 +26 комфорт 1015.3 1001.0
09 18.06 С 2-4
{5}
20 км 4/3 600 м
[Sc Ci fib]
+26.1 +7.0 30 +26 +37 жарко 1014.2 1000.1
12 18.06 С 3-5
{6}
20 км 6/5 600 м
[Sc Ci fib]
+27.0 +7.7 29 +27 +31 жарко 1013.3 999.2
15 18.06 С 2-3
{6}
20 км 1/0
[Ci fib]
+26.2 +7.4 30 +26 +28 жарко 1012.5 998.4 +27.6
18 18.06 Ю 1-1
{4}
20 км ясно +18.1 +13.1 73 +19 +19 1013.2 998.7
21 18.06 ЮЗ 1-2
{2}
20 км 8/6 600 м
[Sc Ac trans]
+15.1 +11.5 79 +16 +16 1013.4 998.7
00 19.06 Ю 1-2
{2}
20 км 8/4 600 м
[Sc Ac trans]
+13.0 +10.9 87 +13 +13 1013.4 998.6
03 19.06 ЮЗ 1-2
{3}
10 км 9/6 600 м
[Sc Ac trans]
+16.3 +13.0 81 +17 +18 1013.0 998.4 +12.2
06 19.06 ЮЗ 2-3
{3}
10 км ясно +24.7 +15.5 57 +28 +38 душно 1012.0 997.8
09 19.06 З 3-6
{7}
20 км 5/3 600 м
[Cb cap Ac trans]
+27.6 +12.3 39 +29 +37 жарко 1010.7 996.7
12 19.06 СЗ 2-4
{8}
10 км в посл. час ливневой дождь 9/9 300 м
[Cb cap]
+25.0 +14.2 51 +27 +29 жарко 1009.5 995.3
15 19.06 Ю 2-3
{7}
20 км 8/3 600 м
[Cb cap Cc]
+25.1 +15.0 53 +28 +29 жарко 1008.4 994.2 +29.0 0.0
18 19.06 ЮЗ 2-4
{4}
10 км 4/3 600 м
[Cb cap Ac trans]
+21.1 +13.4 61 +23 +23 комфорт 1007.7 993.4
21 19.06 Ю 1-2
{4}
20 км 3/0
[Ac lent]
+17.1 +12.4 74 +18 +18 1006.7 992.2
00 20.06 ЮЗ 2-5
{5}
10 км 9/0
[Ac lent]
+18.4 +14.0 76 +19 +19 1005.1 990.7
03 20.06 ЮЗ 3-5
{6}
10 км 9/9 600 м
[Cb cap]
+17.9 +13.5 75 +18 +18 1003.6 989.2 +17.1
06 20.06 ЮЗ 3-8
{8}
20 км в посл. час ливневой дождь 3/3 300 м
[Cb cap]
+20.0 +15.2 74 +23 +29 комфорт 1002.0 987.7
09 20.06 З 7-12
{15}
20 км {гроза, ливн. осадки} 9/9 300 м
[Cb cap]
+17.2 +8.4 56 +16 +17 1003.8 989.3
12 20.06 З 7-11
{16}
20 км {гроза, ливн. осадки} 9/8 600 м
[Cb cap Ci ing]
+20.8 +6.4 39 +21 +22 комфорт 1003.9 989.6
15 20.06 З 4-8
{13}
20 км 9/9 300 м
[Cb cap]
+20.2 +5.9 39 +21 +21 комфорт 1004.3 990.0 +21.9 1
18 20.06 ЮЗ 2-3
{22}
20 км {ливн. осадки} 1/1 300 м
[Cb cap]
+12.9 +8.1 73 +12 +12 1005.8 991.1
21 20.06 ЮЗ 2-4
{6}
20 км в посл. час ливневой дождь 4/4 300 м
[Cb cap]
+12.8 +8.0 73 +12 +12 1006.0 991.3
00 21.06 ЮЗ 2-5
{8}
20 км {ливн. осадки} ясно +11.8 +7.0 72 +11 +11 1006.5 991.7
03 21.06 ЮЗ 4-10
{10}
20 км ясно +13.5 +7.6 67 +12 +14 1006.9 992.2 +10.5 1

 

Местоположение метеостанции Лысково (Нижегородская область, Россия): широта 56.01 долгота 45.03 высота над уровнем моря 124 м.

В архиве по умолчанию представлена погода в Лысково за последнюю неделю. Архивные данные за месяц целиком и за предыдущие месяцы, начиная с января 2011 года, Вы можете получить, выбрав интересующий диапазон дат из раскрывающегося списка и нажав кнопку "Ввод!".


*Определитесь, кто Вы:
робот инопланетянин человек

Внимание! Время в таблицах - всемирное. Для получения местного времени необходимо прибавить поправку, которая в Лысково равна 3 ч.

Смотрите также архив погоды в соседних городах и на ближайших метеорологических станциях:

Погода в Сергаче (Нижегородская область, Россия) (61 км)
Погода в Дальнем Константиново (Нижегородская область, Россия) (64 км)
Погода в Нижнем Новгороде (Нижегородская область, Россия) (70 км)
Погода в Нижнем Новгороде аэропорт (Нижегородская область, Россия) (82 км)
Погода в Семенове (Нижегородская область, Россия) (86 км)
Погода в Воскресенском (Нижегородская область, Россия) (92 км)
Погода в Козьмодемьянске (Марий-Эл, Россия) (102 км)
Погода в Арзамасе (Нижегородская область, Россия) (106 км)
Погода в Большом Болдино (Нижегородская область, Россия) (112 км)
Погода в Лукоянове (Нижегородская область, Россия) (114 км)

Пояснения к столбцам:

Ветер - указаны скорость ветра в м/с - средняя за 10 мин, порывы в срок и между сроками (в фигурных скобках) и направление, откуда дует ветер: С - северный, СВ - северо-восточный, В - восточный, ЮВ - юго-восточный, Ю - южный, ЮЗ - юго-западный, З - западный, СЗ - северо-западный.
Видимость - горизонтальная дальность видимости в метрах или километрах. При видимости от 1 до 10 км при отсутствии осадков обычно наблюдается дымка, при ухудшении видимости до 1 км и менее - туман. В сухую погоду видимость может ухудшаться дымом, пылью или мглою.
Явления - указаны атмосферные явления, наблюдавшиеся в срок или в последний час перед сроком; фигурными скобками обозначены явления, наблюдавшиеся между сроками (за 1-3 часа до срока); квадратными скобками обозначены град или гололедные отложения с указанием их диаметра в мм.
Облачность - указаны через наклонную черту общая и нижняя облачность в баллах и высота нижней границы облаков в метрах; квадратными скобками обозначены формы облаков: Ci - перистые, Cs - перисто-слоистые, Cc - перисто-кучевые, Ac - высококучевые, As - высокослоистые, Sc - слоисто-кучевые, Ns - слоисто-дождевые, Cu - кучевые, Cb - кучево-дождевые. Подробнее классификацию облаков см. в Атласе облаков (PDF).
T - Температура воздуха - температура, измеренная на высоте 2 м над землей.
Td - Температура точки росы - температура, при понижении до которой содержащийся в воздухе водяной пар достигнет насыщения.
f - Относительная влажность воздуха - влажноcть воздуха, измеренная на высоте 2 м над землей.
Te - Эффективная температура - температура, которую ощущает одетый по сезону человек в тени. Характеристика душности погоды. При расчете учитывается влияние влажности воздуха и скорости ветра на теплоощущения человека.
Tes - Эффективная температура на солнце - температура, которую ощущает человек, с поправкой на солнечный нагрев. Характеристика знойности погоды. Зависит от высоты солнца над горизонтом, облачности и скорости ветра. Ночью, в пасмурную погоду, а также при ветре 12 м/с и более поправка равна нулю.
P - Атмосферное давление - приведенное к уровню моря атмосферное давление.
Po - Атмосферное давление - измеренное на уровне метеостанции атмосферное давление.
Tmin - Минимальная температура - минимум температуры воздуха на высоте 2 м над землей.
Tmax - Максимальная температура - максимум температуры воздуха на высоте 2 м над землей.
R - Количество осадков - Количество выпавших осадков за период времени, мм. При наведении курсора мыши на число - период времени, за который выпало указанное количество осадков.
R24 - Количество осадков - Количество выпавших осадков за 24 часа, мм.
S - Снежный покров - Высота снежного покрова, см. При наведении курсора мыши на число - состояние снежного покрова и степень покрытия местности в баллах.